Tucson International Airport
KTUS : now visible

Airfield :











YOU CAN JOIN US ON...

 
LOGIN :

Register | Disclaimer

   EN    FR    IT 

 









Legend :    VFR   Marginal VFR   IFR   Intensive IFR   Very Intensive IFR
Visi :
Ceiling :
>= 8 km
>= 3000ft
5 to 8 km
1000 to 3000 ft
1500m to 5 km
500 to 1000 ft
800 to 1500m
200 to 500 ft
< 800m
< 200 ft
Symbols :   Thunderstorms  Fog  Heavy snow  Heavy precipitations  Wind > 20 kt






- Airport Elevation : 2643 ft
- IATA code : TUS


KTUS - Tucson International

CURRENT METAR :
  • 081853Z 19013G25KT 10SM SCT100 27/02 A3000 RMK AO2 PK WND 19031/1800 SLP119 T02670022

EXPIRED METARs :
  • 081753Z 20012G18KT 10SM FEW100 25/02 A3002 RMK AO2 SLP128 T02500022 10250 20128 58004
  • 081653Z 10SM FEW100 23/01 A3004 RMK AO2 SLP136 T02280011

TAF KTUS
Valid from the 08 at 18:00 until the 09 at 18:00 UTC


081720Z 0818/0918 18014G22KT P6SM FEW100
FM082000 25022G30KT P6SM SCT100 SCT250
FM090200 27012G19KT P6SM SCT100
FM090400 22008KT P6SM FEW100



MET'MAP, your aeronautical weather chart ! - Copyright ORBIFLY December 2007 - Disclaimer

ORBIFLY MET'MAP TEAM :

Programming & Development : Alexandra Zaïnal
Concept & original design : Baudouin d'Aumeries
Assistance for programming : Marc-Olivier Méhu
Technical & hardware support : Manuel Goepfert

Contact : metmap@orbifly.com




SOURCES & CREDITS :

   NOAA       Earth
Advisory